Location: Observatorio del Centro Ecologico de Sonora
(29.0667°N, 110.9333°W)
Time: 03:24:26
(UTC-07:00)

ISS - Visible Passes

Search period start: 24 February 2017 00:00
Search period end: 06 March 2017 00:00
Orbit: 399 x 408 km, 51.6° (Epoch: 24 February)

Date Brightness Start Highest point End Pass type
(mag) Time Alt. Az. Time Alt. Az. Time Alt. Az.
27 Feb -0.5 05:43:11 10° S 05:45:35 19° SE 05:47:58 10° E visible
28 Feb -3.1 06:26:02 10° WSW 06:29:15 53° NW 06:32:28 10° NNE visible
01 Mar -2.9 05:34:52 23° SSW 05:36:41 60° SE 05:39:56 10° NE visible
02 Mar -0.7 04:45:17 20° E 04:45:17 20° E 04:46:56 10° ENE visible
02 Mar -1.7 06:18:07 10° W 06:20:36 20° NW 06:23:07 10° N visible
03 Mar -2.7 05:28:08 39° NNW 05:28:08 39° NNW 05:31:02 10° NNE visible
04 Mar -0.2 04:38:06 13° NE 04:38:06 13° NE 04:38:34 10° NE visible
05 Mar -0.9 05:20:34 13° N 05:20:34 13° N 05:21:25 10° N visible
